Weather in Nikolayevskoye

Russia / Zabaykalsky Krai     51°03′03″N   111°46′19″E
temp.,
°C
wind,
m/s
gust,
m/s
humid.,
%
clouds,
%
prec.,
mm/h
press.,
hPa
HPBL,
m
17 may, tue
tue1700:00+8wsw224013 0.0 100715
03:00+6wsw22501 0.0 100923
06:00+4sw226412 0.0 101028
09:00+13wsw353856 0.0 1008504
12:00+18nw6926100 0.0 10063443
15:00+20nw7826100 0.0 10053055
18:00+17w8840100 0.0 10061952
21:00+11w486934 0.0 1008253
18 may, wed
wed1800:00+8sw358833 0.0 101081
03:00+7wsw39885 0.0 1010192
06:00+6sw33914 0.1 101152
09:00+15wnw712455 0.1 10101513
12:00+19nw81029100 0.0 10082322
15:00+21nw71023100 0.0 10073294
18:00+21nw792497 0.0 10073054
21:00+16wnw6124031 0.0 1010425
19 may, thu
thu1900:00+10wsw226042 0.0 101228
03:00+8sw227291 0.0 101425
06:00+7wsw337827 0.0 101540
09:00+15w364924 0.0 1014584
12:00+22nw573077 0.0 10112102
15:00+25wnw682296 0.0 10083487
18:00+25wnw592067 0.0 10063503
21:00+17wnw2241100 0.0 100811
20 may, fri
fri2000:00+13wsw115113 0.1 101011
03:00+11sw22615 0.1 101017
06:00+9sw22675 0.0 101120
09:00+17w354492 0.0 1009500
12:00+23nw7102899 0.0 10062414
15:00+26nw9122399 0.0 10043464
18:00+25nw7102714 0.0 10023121
21:00+18nw223621 0.0 100413
21 may, sat
sat2100:00+13wsw224799 0.0 100711
03:00+11wsw22575 0.0 100916
06:00+9sw22655 0.0 100912
09:00+16sw124410 0.0 1009386
12:00+23w253099 0.0 10062349
15:00+20nw6947100 0.2 1006740
18:00+16wnw7115595 0.1 10081030
21:00+14wnw695487 0.1 10111011